Flag for Canada Weather past 2 weeks in Richmond, British Columbia, Canada

Now
66 °F

Passing clouds.


Feels Like: 66 °F
Forecast: 60 / 69 °F
Wind: 12 mph from East

Location: Vancouver International Air-Port

Current Time: Aug 27, 2014 at 10:45:20 PM

Latest Report: Aug 27, 2014 at 10:00 PM


Visibility: 20 mi

Pressure: 29.97 "Hg

Humidity: 83%

Dew point: 61 °F

Location of RichmondLocation

Historic Weather in Richmond — Graph

°F

Richmond temperature yesterday

Maximum temperature yesterday: 75 °F (at 2:00 PM)
Minimum temperature yesterday: 63 °F (at 2:00 AM)
Average temperature yesterday: 69 °F

Past Weeks' High & Low Weather Summary

 TemperatureHumidityPressure
High77 °F (Aug 27, 5:00 PM)100% (Aug 13, 10:00 AM)30.15 "Hg (Aug 13, 10:00 AM)
Low55 °F (Aug 23, 6:00 AM)57% (Aug 21, 6:00 PM)29.75 "Hg (Aug 19, 8:00 PM)
Average66 °F82%29.99 "Hg
* Reported Aug 12 9:00 PM — Aug 27 9:00 PM, Richmond, Weather by CustomWeather, © 2014

Note: Actual official high and low records may vary slightly from our data, if they occured in-between our weather recording intervals... More about our weather records

Advertising

Richmond weather history for previous 24 hours

 ConditionsComfort  
Time TempWeatherWind HumidityBarometerVisibility
9:00 PM
Aug 27
70 °FScattered clouds.9 mph69%29.97 "Hg20 mi
8:00 PM72 °FBroken clouds.8 mph69%29.96 "Hg20 mi
7:00 PM75 °FPartly sunny.8 mph61%29.96 "Hg30 mi
6:00 PM77 °FScattered clouds.9 mph57%29.97 "Hg30 mi
5:00 PM77 °FWarm.8 mph65%29.98 "Hg30 mi
4:00 PM75 °FScattered clouds.8 mph65%29.99 "Hg30 mi
3:00 PM75 °FPassing clouds.10 mph69%30.01 "Hg30 mi
2:00 PM73 °FPassing clouds.10 mph78%30.01 "Hg25 mi
1:00 PM73 °FPassing clouds.8 mph78%30.02 "Hg25 mi
12:00 PM72 °FPassing clouds.7 mph78%30.03 "Hg25 mi
10:00 AM70 °FPassing clouds.8 mph83%30.03 "Hg25 mi
9:00 AM70 °FSunny.2 mph78%30.03 "Hg25 mi
8:00 AM66 °FPassing clouds.6 mph78%30.03 "Hg25 mi
7:00 AM63 °FPassing clouds.3 mph88%30.03 "Hg25 mi
6:00 AM63 °FPassing clouds.6 mph83%30.01 "Hg20 mi
5:00 AM63 °FPassing clouds.5 mph83%30.00 "Hg15 mi
4:00 AM64 °FPassing clouds.5 mph88%30.00 "Hg15 mi
3:00 AM64 °FPassing clouds.3 mph88%29.99 "Hg20 mi
2:00 AM66 °FPassing clouds.3 mph88%29.98 "Hg15 mi
1:00 AM68 °FPassing clouds.3 mph78%29.98 "Hg20 mi
12:00 AM68 °FPassing clouds.2 mph88%29.97 "Hg20 mi
11:00 PM
Aug 26
68 °FPassing clouds.No wind83%29.97 "Hg20 mi
10:00 PM68 °FPassing clouds.No wind83%29.97 "Hg30 mi
Weather by CustomWeather, © 2014

See weather overviewHow to use our weather pages